BI4AKC-13 Weather Reports


time (UTC)temp
C
wind
direction
speed
KPH
gust
KPH
rain 1hr
cm
rain 24hr
cm
rain mn
cm
humidity
%
barometer
mb
20260904222306 27 124 0.0 11.3 0.00 0.00 0.00 85
20260904221845 27 194 0.0 4.8 0.00 0.00 0.00 85
20260904221439 27 182 0.0 0.0 0.00 0.00 0.00 85
20260904221009 27 226 1.6 3.2 0.00 0.00 0.00 85
20260904220632 27 115 0.0 4.8 0.00 0.00 0.00 85
20260904220549 27 115 0.0 4.8 0.00 0.00 0.00 85
20260904215654 27 115 0.0 6.4 0.00 0.00 0.00 85
20260904215239 27 154 1.6 3.2 0.00 0.58 0.00 84
20260904214744 27 140 0.0 8.0 0.00 0.00 0.00 85
20260904214326 27 176 0.0 4.8 0.00 0.00 0.00 85
20260904213904 27 143 0.0 6.4 0.00 0.00 0.00 85
20260904213454 27 137 0.0 3.2 0.00 0.00 0.00 85
20260904213019 27 182 0.0 1.6 0.00 0.00 0.00 86
20260904212539 27 102 0.0 0.0 0.00 0.00 0.00 85
20260904212049 27 169 0.0 0.0 0.00 0.00 0.00 85
20260904211639 27 117 0.0 6.4 0.00 0.00 0.00 85
20260904211229 27 160 0.0 6.4 0.00 0.00 0.00 85
20260904210824 27 124 0.0 1.6 0.00 0.00 0.00 84
20260904210414 27 173 0.0 0.0 0.00 0.00 0.00 85
20260904210009 27 161 0.0 1.6 0.00 0.00 0.00 85
20260904205535 27 117 0.0 3.2 0.00 0.00 0.00 84
20260904205129 27 130 0.0 3.2 0.00 0.58 0.00 84
20260904204654 27 134 0.0 3.2 0.00 0.00 0.00 84
20260904204159 27 106 0.0 1.6 0.00 0.00 0.00 85
20260904203724 27 126 0.0 1.6 0.00 0.00 0.00 83
20260904203324 27 169 0.0 0.0 0.00 0.00 0.00 84
20260904202829 27 153 0.0 1.6 0.00 0.00 0.00 85
20260904202359 27 167 0.0 0.0 0.00 0.00 0.00 84
20260904201944 27 170 0.0 0.0 0.00 0.00 0.00 83
20260904201544 27 119 0.0 4.8 0.00 0.00 0.00 85
20260904201119 27 151 0.0 0.0 0.00 0.00 0.00 84
20260904200654 27 116 0.0 3.2 0.00 0.00 0.00 84
20260904200229 27 195 0.0 0.0 0.00 0.00 0.00 85
20260904195759 27 177 0.0 4.8 0.00 0.00 0.00 84
20260904195309 27 146 0.0 4.8 0.00 0.58 0.00 83
20260904194904 27 168 0.0 3.2 0.00 0.00 0.00 83
20260904194454 27 57 0.0 3.2 0.00 0.00 0.00 82
20260904194044 27 140 0.0 1.6 0.00 0.00 0.00 82
20260904193639 27 112 0.0 3.2 0.00 0.00 0.00 81
20260904193224 27 121 0.0 0.0 0.00 0.00 0.00 83
20260904192803 27 145 0.0 1.6 0.00 0.00 0.00 82
20260904192309 27 171 0.0 1.6 0.00 0.00 0.00 84
20260904191904 27 95 0.0 0.0 0.00 0.00 0.00 81
20260904191454 27 144 0.0 4.8 0.00 0.00 0.00 83
20260904191034 27 25 0.0 0.0 0.00 0.00 0.00 82
20260904190602 27 179 0.0 0.0 0.00 0.00 0.00 83
20260904190134 27 140 0.0 0.0 0.00 0.00 0.00 83
20260904185644 27 127 0.0 1.6 0.00 0.00 0.00 82
20260904185224 27 132 1.6 3.2 0.00 0.58 0.00 81
20260904184759 27 182 0.0 4.8 0.00 0.00 0.00 79
20260904184334 27 214 0.0 4.8 0.00 0.00 0.00 82
20260904183926 27 153 1.6 4.8 0.00 0.00 0.00 81
20260904183444 27 131 1.6 3.2 0.00 0.00 0.00 82
20260904182949 27 159 0.0 0.0 0.00 0.00 0.00 84
20260904182509 27 134 0.0 0.0 0.00 0.00 0.00 82
20260904182049 27 222 1.6 1.6 0.00 0.00 0.00 81
20260904181614 27 158 0.0 3.2 0.00 0.00 0.00 83
20260904181149 27 158 1.6 3.2 0.00 0.00 0.00 82
20260904180714 27 172 1.6 6.4 0.00 0.00 0.00 82
20260904180229 27 190 0.0 6.4 0.00 0.00 0.00 82
20260904175756 27 146 0.0 4.8 0.00 0.00 0.00 81
20260904175349 27 89 1.6 1.6 0.00 0.58 0.00 84
20260904174949 27 73 1.6 6.4 0.00 0.00 0.00 83
20260904174537 27 165 1.6 6.4 0.00 0.00 0.00 84
20260904174119 27 199 1.6 9.7 0.00 0.00 0.00 84
20260904173649 27 156 1.6 6.4 0.00 0.00 0.00 83
20260904173215 27 173 1.6 6.4 0.00 0.00 0.00 83
20260904172754 27 182 0.0 8.0 0.00 0.00 0.00 87
20260904172354 27 199 0.0 3.2 0.00 0.00 0.00 84
20260904171859 27 132 1.6 3.2 0.00 0.00 0.00 87
20260904171404 27 349 0.0 8.0 0.00 0.00 0.00 86
20260904170924 27 129 1.6 6.4 0.00 0.00 0.00 85
20260904170429 27 170 1.6 12.9 0.00 0.00 0.00 85
20260904170014 27 110 1.6 3.2 0.00 0.00 0.00 85
20260904165604 27 177 0.0 0.0 0.00 0.00 0.00 86
20260904165139 27 108 0.0 1.6 0.00 0.58 0.00 86
20260904164724 27 241 0.0 4.8 0.00 0.00 0.00 86
20260904164229 27 164 0.0 3.2 0.00 0.00 0.00 85
20260904163828 27 152 0.0 4.8 0.00 0.00 0.00 85
20260904163339 27 205 0.0 4.8 0.00 0.00 0.00 85
20260904162854 27 103 0.0 0.0 0.00 0.00 0.00 85
20260904162439 27 115 0.0 1.6 0.00 0.00 0.00 87
20260904161939 27 145 1.6 0.0 0.00 0.00 0.00 85
20260904161454 27 128 0.0 3.2 0.00 0.00 0.00 87
20260904161044 27 176 0.0 3.2 0.00 0.00 0.00 86
20260904160639 27 113 0.0 1.6 0.00 0.00 0.00 86
20260904160229 27 146 1.6 1.6 0.00 0.00 0.00 87
20260904155754 27 128 1.6 1.6 0.00 0.00 0.00 87
20260904155339 27 170 1.6 1.6 0.00 0.58 0.00 86
20260904154914 27 134 0.0 8.0 0.00 0.00 0.00 85
20260904154414 27 174 0.0 3.2 0.00 0.00 0.00 88
20260904153944 27 161 0.0 0.0 0.00 0.00 0.00 87
20260904153454 27 156 0.0 3.2 0.00 0.00 0.00 87
20260904153049 27 204 0.0 3.2 0.00 0.00 0.00 86
20260904152554 27 128 0.0 4.8 0.00 0.00 0.00 85
20260904152114 27 116 0.0 0.0 0.00 0.00 0.00 88
20260904151709 27 119 0.0 3.2 0.00 0.00 0.00 86
20260904151254 27 159 0.0 1.6 0.00 0.00 0.00 87
20260904150834 27 187 1.6 0.0 0.00 0.00 0.00 87
20260904150349 27 130 0.0 6.4 0.00 0.00 0.00 86
20260904145944 27 163 0.0 0.0 0.00 0.00 0.00 87
20260904145519 27 199 0.0 1.6 0.00 0.00 0.00 87
20260904145119 27 143 0.0 0.0 0.00 0.58 0.00 88
20260904144624 27 257 0.0 0.0 0.00 0.00 0.00 87
20260904144214 27 125 0.0 1.6 0.00 0.00 0.00 87
20260904143724 27 187 0.0 1.6 0.00 0.00 0.00 88
20260904143314 27 103 0.0 3.2 0.00 0.00 0.00 86
20260904142859 27 155 0.0 3.2 0.00 0.00 0.00 89
20260904142449 27 198 0.0 0.0 0.00 0.00 0.00 88
20260904142009 27 136 1.6 4.8 0.00 0.00 0.00 87
20260904141513 27 192 1.6 4.8 0.00 0.00 0.00 87
20260904141014 26 167 1.6 6.4 0.00 0.00 0.00 90
20260904140514 27 46 1.6 6.4 0.00 0.00 0.00 91
20260904140024 27 158 1.6 6.4 0.00 0.00 0.00 92
20260904135609 26 168 0.0 4.8 0.00 0.00 0.00 92
20260904135134 26 0 3.2 4.8 0.00 0.58 0.00 93
20260904134634 26 194 3.2 4.8 0.00 0.00 0.00 93
20260904134204 26 142 1.6 4.8 0.00 0.00 0.00 93
20260904133704 26 175 1.6 3.2 0.00 0.00 0.00 94
20260904133214 26 146 1.6 1.6 0.00 0.00 0.00 93
20260904132759 26 210 0.0 8.0 0.00 0.00 0.00 94
20260904132339 26 129 0.0 3.2 0.00 0.00 0.00 95
20260904131854 26 199 1.6 6.4 0.00 0.00 0.00 94
20260904131449 26 199 1.6 6.4 0.00 0.00 0.00 94
20260904131039 26 161 1.6 6.4 0.00 0.00 0.00 94
20260904130624 26 166 1.6 4.8 0.00 0.00 0.00 95
20260904130159 26 154 1.6 4.8 0.00 0.00 0.00 95
20260904125724 26 195 1.6 6.4 0.00 0.00 0.00 95
20260904125259 26 49 3.2 8.0 0.00 0.58 0.00 94
20260904124859 26 185 3.2 4.8 0.00 0.00 0.00 95
20260904124419 26 135 1.6 4.8 0.00 0.00 0.00 95
20260904123948 26 188 1.6 4.8 0.00 0.00 0.00 94
20260904123520 26 241 3.2 8.0 0.00 0.00 0.00 96
20260904123039 26 181 1.6 6.4 0.00 0.00 0.00 95
20260904122554 26 204 1.6 9.7 0.00 0.00 0.00 95
20260904122139 26 122 1.6 6.4 0.00 0.00 0.00 95
20260904121702 26 105 0.0 8.0 0.00 0.00 0.00 96
20260904121204 26 13 3.2 3.2 0.00 0.00 0.00 96
20260904120704 26 119 3.2 0.0 0.00 0.00 0.00 96
20260904120239 26 145 1.6 12.9 0.00 0.00 0.00 96
20260904115834 26 170 0.0 3.2 0.00 0.00 0.00 97
20260904115409 26 199 0.0 4.8 0.00 0.58 0.00 97
20260904114944 26 132 3.2 6.4 0.00 0.00 0.00 96
20260904114519 26 163 0.0 9.7 0.00 0.00 0.00 97
20260904114104 26 248 0.0 4.8 0.00 0.00 0.00 97
20260904113639 26 143 0.0 0.0 0.00 0.00 0.00 97
20260904113204 26 144 0.0 1.6 0.00 0.00 0.00 98
20260904112734 26 128 1.6 4.8 0.00 0.00 0.00 98
20260904112259 26 153 0.0 8.0 0.00 0.00 0.00 98
20260904111804 26 333 1.6 4.8 0.00 0.00 0.00 98
20260904111359 26 162 3.2 8.0 0.00 0.00 0.00 98
20260904110944 26 154 3.2 3.2 0.00 0.00 0.00 98
20260904110514 26 109 3.2 8.0 0.00 0.00 0.00 98
20260904110034 26 120 3.2 8.0 0.00 0.00 0.00 99
20260904105549 26 166 3.2 8.0 0.00 0.00 0.00 99
20260904105134 26 198 1.6 8.0 0.00 0.58 0.00 99
20260904104709 26 179 3.2 6.4 0.00 0.00 0.00 99
20260904104254 26 135 1.6 8.0 0.00 0.00 0.00 10
20260904103814 26 143 1.6 6.4 0.00 0.00 0.00 10
20260904103329 26 223 3.2 1.6 0.00 0.00 0.00 10
20260904102859 26 139 1.6 6.4 0.00 0.00 0.00 10
20260904102439 26 146 1.6 6.4 0.00 0.00 0.00 10
20260904102014 26 127 1.6 6.4 0.00 0.00 0.00 10
20260904101524 26 130 3.2 9.7 0.00 0.00 0.00 10
20260904101039 26 149 3.2 9.7 0.00 0.00 0.00 10
20260904100558 26 153 1.6 8.0 0.00 0.00 0.00 10
20260904100149 26 241 1.6 6.4 0.00 0.00 0.00 10
20260904095739 26 216 1.6 6.4 0.00 0.00 0.00 10
20260904095249 26 120 0.0 4.8 0.03 0.58 0.00 10
20260904094834 26 28 1.6 4.8 0.00 0.00 0.00 10
20260904094359 26 111 0.0 8.0 0.00 0.00 0.00 10
20260904093912 26 146 3.2 6.4 0.00 0.00 0.00 10
20260904093434 26 153 1.6 8.0 0.00 0.00 0.00 10
20260904093029 26 129 1.6 6.4 0.00 0.00 0.00 10
20260904092559 26 198 3.2 4.8 0.00 0.00 0.00 10
20260904092119 26 155 3.2 12.9 0.00 0.00 0.00 99
20260904091644 26 218 4.8 11.3 0.00 0.00 0.00 98
20260904091154 27 129 4.8 22.5 0.00 0.00 0.00 95
20260904090754 28 166 3.2 14.5 0.00 0.00 0.00 89
20260904090319 30 91 3.2 11.3 0.00 0.00 0.00 75
20260904085824 30 190 3.2 3.2 0.00 0.00 0.00 76
20260904085337 30 180 4.8 9.7 0.00 0.10 0.00 75
20260904084929 30 150 3.2 11.3 0.00 0.00 0.00 75
20260904084503 30 152 1.6 4.8 0.00 0.00 0.00 75
20260904084029 30 160 1.6 6.4 0.00 0.00 0.00 75
20260904083604 30 197 3.2 8.0 0.00 0.00 0.00 75
20260904083144 30 131 3.2 8.0 0.00 0.00 0.00 74
20260904082649 30 143 4.8 11.3 0.00 0.00 0.00 75
20260904082234 30 170 4.8 11.3 0.00 0.00 0.00 75
20260904081829 30 170 3.2 12.9 0.00 0.00 0.00 76
20260904081334 30 242 3.2 6.4 0.00 0.00 0.00 77
20260904080859 30 215 1.6 11.3 0.00 0.00 0.00 77
20260904080409 30 110 3.2 8.0 0.00 0.00 0.00 77
20260904080004 30 141 3.2 6.4 0.00 0.00 0.00 76
20260904075514 30 218 3.2 9.7 0.00 0.10 0.00 77
20260904075014 30 132 3.2 9.7 0.00 0.00 0.00 79
20260904074614 30 87 3.2 3.2 0.00 0.00 0.00 80
20260904074159 29 240 1.6 11.3 0.00 0.00 0.00 80
20260904073714 29 166 1.6 6.4 0.00 0.00 0.00 82
20260904073244 29 232 1.6 4.8 0.00 0.00 0.00 82
20260904072834 28 168 3.2 4.8 0.00 0.00 0.00 83
20260904072429 28 203 3.2 1.6 0.00 0.00 0.00 83
20260904071934 28 203 4.8 3.2 0.00 0.00 0.00 85
20260904071504 29 182 6.4 9.7 0.00 0.00 0.00 83
20260904071044 30 175 3.2 17.7 0.00 0.00 0.00 80
20260904070619 30 93 3.2 9.7 0.00 0.00 0.00 76
20260904070154 30 20 4.8 8.0 0.00 0.00 0.00 77
20260904065739 30 133 4.8 16.1 0.00 0.00 0.00 75
20260904065259 30 134 4.8 6.4 0.00 0.08 0.00 75
20260904064814 30 36 3.2 8.0 0.00 0.00 0.00 76
20260904064334 30 151 1.6 9.7 0.00 0.00 0.00 77
20260904063854 30 86 3.2 9.7 0.00 0.00 0.00 78
20260904063449 30 179 4.8 11.3 0.00 0.00 0.00 78
20260904063044 30 349 1.6 12.9 0.00 0.00 0.00 78
20260904062639 30 135 1.6 0.0 0.00 0.00 0.00 79
20260904062154 30 109 1.6 0.0 0.00 0.00 0.00 80
20260904061729 30 79 0.0 8.0 0.00 0.00 0.00 80
20260904061319 30 136 3.2 4.8 0.00 0.00 0.00 82
20260904060859 29 80 3.2 12.9 0.00 0.00 0.00 83
20260904060424 29 150 3.2 14.5 0.00 0.00 0.00 84
20260904055937 30 43 3.2 16.1 0.00 0.00 0.00 87
20260904055529 30 196 3.2 16.1 0.00 0.00 0.00 74
20260904055054 31 122 1.6 8.0 0.00 0.05 0.00 73
20260904054604 30 142 1.6 4.8 0.00 0.00 0.00 73
20260904054119 30 176 0.0 3.2 0.00 0.00 0.00 76
20260904053639 30 210 4.8 3.2 0.00 0.00 0.00 75
20260904053149 30 103 3.2 14.5 0.00 0.00 0.00 74
20260904052704 30 130 3.2 8.0 0.00 0.00 0.00 74
20260904052239 30 111 3.2 11.3 0.00 0.00 0.00 75
20260904051829 31 118 3.2 1.6 0.00 0.00 0.00 72
20260904051326 31 136 3.2 4.8 0.00 0.00 0.00 72
20260904050924 31 144 3.2 6.4 0.00 0.00 0.00 71
20260904050429 31 195 3.2 8.0 0.00 0.00 0.00 71
20260904045954 31 165 3.2 6.4 0.00 0.00 0.00 70
20260904045524 31 133 4.8 9.7 0.00 0.00 0.00 70
20260904045034 31 359 4.8 16.1 0.00 0.05 0.00 71
20260904044629 31 50 3.2 17.7 0.00 0.00 0.00 71
20260904044144 31 223 3.2 1.6 0.00 0.00 0.00 72
20260904043649 31 180 3.2 6.4 0.00 0.00 0.00 71
20260904043209 31 137 4.8 8.0 0.00 0.00 0.00 71
20260904042759 32 136 1.6 8.0 0.00 0.00 0.00 74
20260904042354 31 66 4.8 11.3 0.00 0.00 0.00 73
20260904041944 31 174 4.8 12.9 0.00 0.00 0.00 75
20260904041521 31 92 4.8 17.7 0.00 0.00 0.00 76
20260904041049 31 114 4.8 9.7 0.00 0.00 0.00 76
20260904040554 31 176 3.2 12.9 0.00 0.00 0.00 78
20260904040126 30 150 3.2 11.3 0.00 0.00 0.00 79
20260904035709 30 156 1.6 6.4 0.00 0.00 0.00 84
20260904035306 29 247 0.0 8.0 0.00 0.05 0.00 86
20260904034819 28 182 0.0 3.2 0.00 0.00 0.00 91
20260904034349 28 221 1.6 4.8 0.00 0.00 0.00 92
20260904033934 27 111 1.6 1.6 0.00 0.00 0.00 92
20260904033504 27 150 0.0 4.8 0.00 0.00 0.00 94
20260904033054 27 190 1.6 4.8 0.00 0.00 0.00 94
20260904032649 27 190 1.6 4.8 0.00 0.00 0.00 94
20260904032204 27 153 3.2 6.4 0.00 0.00 0.00 93
20260904031749 28 145 1.6 9.7 0.00 0.00 0.00 91
20260904031334 30 150 1.6 0.0 0.00 0.00 0.00 76
20260904030859 30 179 1.6 4.8 0.00 0.00 0.00 76
20260904030424 30 7 3.2 3.2 0.00 0.00 0.00 77
20260904025944 29 127 3.2 8.0 0.00 0.00 0.00 77
20260904025545 29 154 1.6 14.5 0.00 0.00 0.00 76
20260904025049 29 188 3.2 9.7 0.00 0.03 0.00 80
20260904024634 29 169 3.2 0.0 0.00 0.00 0.00 80
20260904024159 29 84 1.6 3.2 0.00 0.00 0.00 83
20260904023734 30 148 3.2 6.4 0.00 0.00 0.00 75
20260904023259 30 200 3.2 8.0 0.00 0.00 0.00 76
20260904022814 30 152 1.6 11.3 0.00 0.00 0.00 75
20260904022349 30 139 1.6 6.4 0.00 0.00 0.00 75
20260904021929 30 90 3.2 6.4 0.00 0.00 0.00 76
20260904021509 30 161 3.2 4.8 0.00 0.00 0.00 76
20260904021054 30 107 3.2 11.3 0.00 0.00 0.00 75
20260904020654 30 88 1.6 9.7 0.00 0.00 0.00 76
20260904020229 30 161 4.8 9.7 0.00 0.00 0.00 75
20260904015824 30 142 3.2 12.9 0.00 0.00 0.00 75
20260904015339 30 165 1.6 11.3 0.00 0.03 0.00 75
20260904014914 30 121 1.6 8.0 0.00 0.00 0.00 76
20260904014459 30 104 1.6 14.5 0.00 0.00 0.00 75
20260904014029 29 119 1.6 14.5 0.00 0.00 0.00 77
20260904013539 29 161 4.8 8.0 0.00 0.00 0.00 78
20260904013124 29 63 1.6 20.9 0.00 0.00 0.00 77
20260904012649 29 357 3.2 8.0 0.00 0.00 0.00 77
20260904012204 29 102 1.6 12.9 0.00 0.00 0.00 78
20260904011754 29 174 1.6 4.8 0.00 0.00 0.00 79
20260904011336 29 87 1.6 4.8 0.00 0.00 0.00 77
20260904010914 28 334 1.6 8.0 0.00 0.00 0.00 78
20260904010434 28 160 3.2 8.0 0.00 0.00 0.00 79
20260904005937 28 106 1.6 11.3 0.00 0.00 0.00 78
20260904005529 28 162 4.8 8.0 0.00 0.00 0.00 78
20260904005034 28 154 3.2 16.1 0.00 0.03 0.00 77
20260904004624 28 128 3.2 3.2 0.00 0.00 0.00 79
20260904004157 28 111 1.6 11.3 0.00 0.00 0.00 79
20260904003729 28 143 1.6 9.7 0.00 0.00 0.00 80
20260904003254 28 111 3.2 9.7 0.00 0.00 0.00 80
20260904002849 28 173 1.6 8.0 0.00 0.00 0.00 79
20260904002439 28 125 3.2 9.7 0.00 0.00 0.00 79
20260904002024 28 272 3.2 9.7 0.00 0.00 0.00 79
20260904001609 28 44 3.2 8.0 0.00 0.00 0.00 78
20260904001119 28 120 1.6 3.2 0.00 0.00 0.00 79
20260904000637 28 141 4.8 4.8 0.00 0.00 0.00 79
20260904000149 28 111 3.2 17.7 0.00 0.00 0.00 79
20260903235729 28 141 4.8 16.1 0.00 0.00 0.00 78
20260903235305 28 38 4.8 16.1 0.00 0.03 0.00 79
20260903234844 28 89 4.8 9.7 0.00 0.00 0.00 78
20260903234354 28 240 3.2 1.6 0.00 0.00 0.00 79
20260903233929 27 140 3.2 6.4 0.00 0.00 0.00 80
20260903233439 27 338 3.2 8.0 0.00 0.00 0.00 80
20260903233039 27 139 3.2 9.7 0.00 0.00 0.00 81
20260903232634 27 100 3.2 12.9 0.00 0.00 0.00 80
20260903232224 27 194 3.2 4.8 0.00 0.00 0.00 80
20260903231804 27 114 3.2 4.8 0.00 0.00 0.00 81
20260903231309 27 121 1.6 11.3 0.00 0.00 0.00 80
20260903230839 27 165 1.6 6.4 0.00 0.00 0.00 80
20260903230434 27 138 3.2 9.7 0.00 0.00 0.00 81
20260903230029 27 135 1.6 12.9 0.00 0.00 0.00 80
20260903225614 27 125 1.6 4.8 0.00 0.00 0.00 80
20260903225134 27 155 1.6 4.8 0.00 0.03 0.00 80
20260903224644 27 133 3.2 6.4 0.00 0.00 0.00 80
20260903224214 27 211 3.2 12.9 0.00 0.00 0.00 80
20260903223749 27 158 3.2 16.1 0.00 0.00 0.00 80
20260903223324 27 164 3.2 11.3 0.00 0.00 0.00 80
20260903222829 27 178 0.0 11.3 0.00 0.00 0.00 80